Location: Apalco
(33.3585°N, 93.4602°W)
Time: 00:02:13
(UTC+00:00)

Envisat - Pass Details

Date: 30 September 2021
Orbit: 764 x 766 km, 98.2° (Epoch: 20 October)

Event Time Altitude Azimuth Distance (km) Brightness Sun altitude
Rises 10:54:47 0° 19° (NNE) 3,233 6.6 -16.0°
Reaches altitude 10° 10:57:11 10° 24° (NNE) 2,304 5.9 -15.5°
Maximum altitude 11:02:06 50° 100° (E) 972 4.0 -14.5°
Drops below altitude 10° 11:06:59 10° 175° (S) 2,290 5.5 -13.5°
Sets 11:09:20 0° 180° (S) 3,212 6.2 -13.0°
